Flag for U.S.A. Weather past 2 weeks in Sunrise Manor, Nevada, U.S.A.

Now
62 °F

Clear.


Feels Like: 62 °F
Forecast: 51 / 85 °F
Wind: 9 mph from East

Location: Nellis Air Force Base

Current Time: Apr 18, 2015 at 2:33:27 AM

Latest Report: Apr 18, 2015 at 1:58 AM


Visibility: 10 mi

Pressure: 29.88 "Hg

Humidity: 19%

Dew point: 20 °F

Location of Sunrise ManorLocation

Historic Weather in Sunrise Manor — Graph

°F

Sunrise Manor temperature yesterday

Maximum temperature yesterday: 78 °F (at 4:58 PM)
Minimum temperature yesterday: 51 °F (at 5:58 AM)
Average temperature yesterday: 66 °F

Past Weeks' High & Low Weather Summary

 TemperatureHumidityPressure
High87 °F (Apr 13, 4:58 PM)50% (Apr 8, 12:58 AM)30.24 "Hg (Apr 8, 12:58 AM)
Low43 °F (Apr 4, 4:58 AM)5% (Apr 4, 5:58 PM)29.56 "Hg (Apr 5, 5:58 PM)
Average65 °F16%29.88 "Hg
* Reported Apr 3 12:58 AM — Apr 18 12:58 AM, Sunrise Manor, Weather by CustomWeather, © 2015

Note: Actual official high and low records may vary slightly from our data, if they occured in-between our weather recording intervals... More about our weather records

Advertising

Sunrise Manor weather history for previous 24 hours

 ConditionsComfort  
Time TempWeatherWind HumidityBarometerVisibility
12:58 AM
Sat, Apr 18
63 °FClear.10 mph18%29.90 "Hg10 mi
11:58 PM
Fri, Apr 17
63 °FClear.6 mph19%29.89 "Hg10 mi
10:58 PM66 °FClear.No wind16%29.87 "Hg10 mi
9:58 PM66 °FClear.5 mph15%29.87 "Hg10 mi
8:58 PM72 °FClear.6 mph12%29.86 "Hg10 mi
7:58 PM75 °FSunny.7 mph10%29.84 "Hg10 mi
6:58 PM78 °FSunny.10 mph10%29.83 "Hg10 mi
5:58 PM78 °FSunny.9 mph10%29.85 "Hg10 mi
4:58 PM78 °FSunny.2 mph10%29.86 "Hg10 mi
3:58 PM78 °FSunny.7 mph10%29.88 "Hg10 mi
2:58 PM78 °FSunny.3 mph10%29.91 "Hg10 mi
1:58 PM75 °FSunny.No wind13%29.94 "Hg10 mi
12:58 PM72 °FSunny.1 mph15%29.97 "Hg10 mi
11:58 AM71 °FSunny.3 mph16%29.99 "Hg10 mi
10:58 AM68 °FSunny.No wind19%30.03 "Hg10 mi
9:58 AM65 °FSunny.No wind21%30.05 "Hg10 mi
8:58 AM61 °FSunny.5 mph25%30.06 "Hg9 mi
7:58 AM58 °FSunny.2 mph27%30.05 "Hg10 mi
6:58 AM54 °FClear.No wind32%30.05 "Hg10 mi
5:58 AM51 °FClear.2 mph34%30.04 "Hg10 mi
4:58 AM52 °FClear.No wind32%30.03 "Hg10 mi
3:58 AM58 °FClear.5 mph27%30.03 "Hg10 mi
2:58 AM59 °FClear.7 mph25%30.03 "Hg10 mi
Weather by CustomWeather, © 2015

See weather overviewHow to use our weather pages